SCP
0 0 0 0 0 0 0 0 0 0 0 0 0 0 0 0 0 0 0 0 0 0 0 0 0 0 0 0 0 0 -0 -0 -0 -0 -0 -0 -0 -0
0 0 0 0 0 0 0 0 0 0 0 0 0 0 0 0 0 0 0 0 0 0 0 0 0 0 0 -0 0 -0 -0 -0 0 0 0 0 0 0
0 0 0 0 0 0 0 0 0 0 0 0 0 0 0 0 0 0 0 0 0 0 0 0 0 0 0 0 -0 0 0 0 0 0 0 0 0 0
0 0 0 0 0 0 0 0 0 0 0 0 0 0 0 0 0 0 0 0 0 0 0 0 0 0 0 -0 0 0 0 0 0 0 0 0 0 0
0 0 0 0 0 0 0 0 0 0 0 0 0 0 0 0 0 0 0 0 0 0 0 0 0 0 0 -0 0 0 0 0 0 0 0 0 0 0
0 0 0 0 0 0 0 0 0 0 0 0 0 0 0 0 0 0 0 0 0 0 0 0 0 0 0 0 0 0 0 0 0 0 0 0 0 0
0 0 0 0 0 0 0 0 0 0 0 0 0 0 0 0 0 0 0 0 0 0 0 0 0 0 0 0 0 0 0 0 0 0 0 0 0 -0
0 0 0 0 0 0 0 0 0 0 0 0 0 0 0 0 0 0 0 0 0 0 0 0 0 0 0 0 0 0 0 0 0 0 0 0 0 0
0 0 0 0 0 0 0 0 0 0 0 0 0 0 0 0 0 0 0 0 0 0 0 0 0 0 0 0 0 0 0 0 0 0 0 0 0 0
0 0 0 0 0 0 0 0 0 0 0 0 0 0 0 0 0 0 0 0 0 0 0 0 0 0 0 0 0 0 0 0 0 0 0 0 0 0
0 0 0 0 -0 -0 -0 0 -0 0 0 0 0 0 0 0 0 0 0 0 0 0 0 0 0 0 0 0 0 0 0 0 0 -0 0 0 0 0
0 0 0 0 -0 -0 0 -0 -0 0 0 0 0 0 0 0 0 0 0 0 0 0 0 0 0 0 0 0 0 0 0 0 0 0 0 0 0 0
0 0 0 0 -0 0 0 0 0 -0 0 0 0 0 0 0 0 0 0 0 0 0 0 0 0 0 0 0 0 0 -0 -0 0 0 0 0 0 0
0 0 0 0 -0 -0 -0 -0 -0 -0 0 0 0 0 0 0 0 0 0 0 0 0 0 0 0 0 0 0 0 0 0 0 0 0 0 0 0 0
0 0 -0 0 -0 -0 -0 -0 -0 0 0 0 0 0 0 0 0 0 0 0 0 0 0 0 0 0 0 0 0 0 0 0 0 0 0 0 0 0
0 -0 0 0 0 -0 0 0 0 0 0 0 0 0 0 0 0 0 0 0 0 0 0 0 0 0 0 0 0 0 0 0 0 0 0 0 0 0
0 0 0 0 0 0 0 0 0 0 0 0 0 0 0 0 0 0 0 0 0 0 0 0 0 0 0 0 0 0 0 0 0 0 0 0 0 0
0 0 0 0 0 0 0 0 0 0 0 0 0 0 0 0 0 0 0 0 0 0 0 0 0 0 0 0 0 0 0 0 0 0 0 0 0 0
0 0 0 0 0 0 0 0 0 0 0 0 0 0 0 0 0 0 0 0 0 0 0 0 0 0 0 0 0 0 0 0 0 0 0 0 0 0
0 0 0 0 0 0 0 0 0 0 0 0 0 0 0 0 0 0 0 0 0 0 0 0 0 0 0 0 0 0 0 0 0 0 0 0 0 0
0 0 0 0 -0 0 0 0 0 0 0 0 0 0 0 0 0 0 0 0 0 0 0 0 0 0 0 0 0 0 0 0 0 0 0 0 0 0
0 0 -0 -0 -0 -0 0 0 0 0 0 0 0 0 0 0 0 0 0 0 0 0 0 0 0 0 0 0 0 0 0 0 0 0 0 0 0 0
0 -0 -0 -0 -0 0 0 0 0 0 0 0 0 0 0 0 0 0 0 0 0 0 0 0 0 0 0 0 0 0 0 0 0 0 0 0 0 0
Wind_Speed_500mb
28 26 27 28 25 22 23 23 23 17 13 16 15 14 15 20 19 22 23 31 41 40 35 33 34 39 41 42 35 33 32 29 30 30 32 20 23 28
27 25 23 21 22 23 23 21 22 22 13 13 17 11 15 19 21 21 22 27 34 35 34 33 37 42 46 43 36 37 31 30 29 33 26 24 27 28
24 22 19 20 22 22 24 25 21 22 22 16 15 13 15 15 17 27 23 24 30 35 35 34 34 32 31 25 27 31 31 29 31 28 25 27 28 27
20 19 20 20 20 22 24 24 26 23 25 22 20 20 19 18 31 23 25 26 29 31 33 35 34 37 33 34 34 34 34 35 29 28 29 27 24 26
18 15 17 21 19 20 21 23 27 26 26 24 24 27 23 29 39 23 22 26 26 29 35 35 34 33 32 36 33 29 33 33 31 29 27 25 26 29
16 15 17 20 20 19 19 20 24 27 29 27 28 29 28 27 31 28 26 29 32 36 38 37 33 29 36 40 33 34 37 36 31 29 29 27 29 28
17 16 19 22 22 21 21 23 25 30 30 36 33 34 35 34 35 33 32 33 34 38 43 42 39 38 44 38 35 35 33 30 27 27 27 29 28 27
14 18 21 23 23 19 26 29 28 31 33 40 36 37 40 39 35 36 34 37 36 36 38 35 36 42 38 37 35 35 33 30 28 27 28 28 27 26
18 21 23 24 23 24 23 22 27 26 25 26 25 32 38 44 38 35 38 40 43 43 41 47 41 38 34 31 33 34 32 29 30 29 31 28 26 26
24 23 23 26 25 24 23 26 15 28 23 21 21 22 22 43 38 36 40 40 37 46 43 48 45 39 37 33 38 40 36 34 33 33 33 31 29 29
24 23 26 25 26 20 24 28 25 24 26 22 23 26 24 39 47 42 43 38 40 51 49 44 49 41 38 41 34 36 36 33 33 33 31 33 32 31
23 24 23 22 20 21 24 25 32 33 28 25 25 29 30 37 38 36 38 44 49 45 53 45 51 46 35 45 40 33 33 34 34 33 33 33 33 34
22 20 15 13 14 17 14 14 22 23 26 19 21 29 36 38 41 39 38 37 47 50 50 49 50 43 41 27 43 41 36 35 34 31 33 33 32 36
19 17 13 18 18 20 18 15 14 16 18 19 23 31 37 43 41 38 38 40 38 41 31 49 45 44 44 41 31 29 35 32 33 32 32 32 33 36
17 17 18 22 24 25 20 16 12 14 18 19 23 30 32 34 40 40 41 41 37 37 37 31 39 29 35 31 21 15 23 25 30 32 30 30 32 34
17 17 22 27 27 23 21 18 12 5 10 15 18 24 26 30 38 34 39 40 36 37 37 30 31 28 33 31 26 21 18 16 20 21 21 25 26 29
17 18 29 32 30 28 23 20 14 2 6 14 22 26 28 31 38 36 34 34 35 33 35 33 29 32 36 33 31 27 25 26 22 23 28 31 31 31
18 20 33 37 31 35 29 21 13 4 7 15 22 26 28 33 37 37 36 36 33 29 27 29 34 31 33 38 35 29 29 29 23 27 33 40 38 26
17 22 37 41 36 30 26 18 12 12 10 12 18 21 22 24 30 32 33 35 28 21 24 29 36 30 28 32 26 31 35 20 18 24 26 31 37 36
16 26 37 38 39 33 26 20 17 14 10 15 16 20 25 29 32 31 34 35 24 17 15 29 34 31 28 23 29 25 27 28 26 26 27 35 42 44
24 28 30 35 36 35 28 22 19 15 11 12 16 17 22 28 34 34 34 35 30 22 20 24 21 20 26 32 38 32 24 26 28 33 38 44 47 54
27 34 33 34 35 37 35 26 21 19 15 15 14 16 22 28 32 30 34 38 34 24 21 18 20 25 30 36 41 43 40 30 29 36 42 49 59 65
15 21 25 30 35 37 34 29 24 20 16 15 18 22 21 24 28 32 31 37 35 29 27 28 27 29 33 39 44 46 47 48 49 50 47 48 52 58
Wind_Direction_500mb
248 249 253 255 252 242 248 259 255 260 277 261 257 240 221 202 214 206 200 196 194 196 198 203 206 205 205 199 204 200 205 198 188 200 187 196 186 185
247 246 244 243 239 240 239 242 242 248 265 259 253 249 220 215 205 187 183 182 189 196 197 205 202 196 204 194 196 196 187 184 190 181 197 190 188 188
232 235 239 240 236 233 234 237 242 240 248 266 234 222 197 197 216 195 189 184 187 192 194 198 198 196 183 197 197 188 183 181 183 190 191 192 194 188
218 232 231 236 236 225 231 239 235 243 246 251 219 202 193 183 173 164 176 172 173 181 182 179 189 192 187 189 174 177 180 184 190 189 189 191 194 196
222 232 227 235 230 229 233 235 232 238 238 237 221 197 194 196 195 203 176 166 166 170 168 174 182 184 188 192 187 179 184 194 190 192 190 195 196 201
220 235 236 233 234 239 243 237 230 231 223 217 215 202 194 190 189 197 181 174 172 171 171 175 180 190 186 188 187 185 186 193 191 195 194 198 202 205
224 243 237 231 234 238 244 248 241 234 226 207 204 204 196 192 192 190 186 176 173 177 177 178 182 187 188 192 191 190 191 191 193 202 206 207 206 210
252 251 242 227 231 244 269 253 240 229 214 201 208 212 200 201 196 195 193 173 161 171 176 175 185 183 191 189 192 195 195 198 201 208 208 211 216 221
253 255 232 230 236 268 260 232 233 202 201 221 229 221 205 202 202 200 201 197 183 178 177 174 183 188 194 196 203 204 203 208 209 216 216 219 226 233
252 240 234 234 257 269 242 223 221 206 201 205 217 225 245 206 202 205 197 204 190 182 183 187 186 189 200 207 206 210 212 219 221 223 225 227 233 240
240 238 235 245 269 250 219 213 210 202 204 213 214 217 209 202 199 194 195 199 188 184 193 193 194 197 207 207 214 218 230 230 231 229 233 233 237 247
229 230 234 255 254 231 204 209 204 194 202 202 186 167 169 187 193 199 208 203 199 189 194 202 200 199 204 214 222 229 232 237 236 238 233 233 241 254
216 226 239 231 195 189 163 155 180 184 191 199 187 175 175 187 193 198 205 214 204 203 198 199 205 213 207 221 230 235 245 239 241 233 231 238 250 263
217 219 217 185 168 161 162 158 184 199 205 207 195 186 184 191 196 195 198 202 211 220 214 202 213 216 215 221 250 247 231 232 236 235 241 249 256 264
201 200 197 179 167 167 170 171 181 206 217 208 197 190 190 192 197 193 195 200 203 211 218 228 215 224 225 224 235 216 215 228 238 244 247 254 262 266
185 187 184 170 172 180 175 173 193 245 231 219 199 187 193 192 190 194 193 201 205 208 211 217 217 221 212 208 211 215 222 230 236 243 248 249 258 270
190 185 178 177 179 190 181 176 189 227 216 177 174 186 185 173 172 176 185 197 202 199 207 217 222 212 204 214 231 239 244 251 252 259 267 270 268 278
207 202 185 187 186 200 188 175 182 178 147 167 175 187 193 191 192 189 193 199 207 211 217 218 200 201 206 222 239 252 258 269 271 274 279 284 284 287
204 199 187 191 184 184 175 169 179 166 167 181 185 195 203 203 197 200 199 201 191 198 215 207 200 202 219 243 248 266 276 289 286 277 280 282 290 297
188 186 191 190 185 181 168 169 176 183 183 185 188 199 205 205 198 196 190 184 187 179 184 197 207 224 244 270 293 279 283 289 287 288 293 296 296 299
170 179 189 191 196 195 175 169 174 183 179 176 185 193 197 199 198 202 202 201 197 200 201 210 224 249 264 273 281 294 300 303 299 298 299 300 304 303
179 192 197 197 197 205 188 187 193 187 190 202 202 197 201 212 206 209 208 205 208 223 235 243 256 263 270 279 287 297 303 301 297 297 298 301 305 307
162 183 192 203 206 207 194 197 202 204 210 212 214 220 220 219 217 216 215 219 228 240 259 267 270 269 275 287 294 298 301 299 298 297 294 296 295 299
Wind_Speed_850mb
28 26 27 28 25 22 23 23 23 17 13 16 15 14 15 20 19 22 23 31 41 40 35 33 34 39 41 42 35 33 32 29 30 30 32 20 23 28
27 25 23 21 22 23 23 21 22 22 13 13 17 11 15 19 21 21 22 27 34 35 34 33 37 42 46 43 36 37 31 30 29 33 26 24 27 28
24 22 19 20 22 22 24 25 21 22 22 16 15 13 15 15 17 27 23 24 30 35 35 34 34 32 31 25 27 31 31 29 31 28 25 27 28 27
20 19 20 20 20 22 24 24 26 23 25 22 20 20 19 18 31 23 25 26 29 31 33 35 34 37 33 34 34 34 34 35 29 28 29 27 24 26
18 15 17 21 19 20 21 23 27 26 26 24 24 27 23 29 39 23 22 26 26 29 35 35 34 33 32 36 33 29 33 33 31 29 27 25 26 29
16 15 17 20 20 19 19 20 24 27 29 27 28 29 28 27 31 28 26 29 32 36 38 37 33 29 36 40 33 34 37 36 31 29 29 27 29 28
17 16 19 22 22 21 21 23 25 30 30 36 33 34 35 34 35 33 32 33 34 38 43 42 39 38 44 38 35 35 33 30 27 27 27 29 28 27
14 18 21 23 23 19 26 29 28 31 33 40 36 37 40 39 35 36 34 37 36 36 38 35 36 42 38 37 35 35 33 30 28 27 28 28 27 26
18 21 23 24 23 24 23 22 27 26 25 26 25 32 38 44 38 35 38 40 43 43 41 47 41 38 34 31 33 34 32 29 30 29 31 28 26 26
24 23 23 26 25 24 23 26 15 28 23 21 21 22 22 43 38 36 40 40 37 46 43 48 45 39 37 33 38 40 36 34 33 33 33 31 29 29
24 23 26 25 26 20 24 28 25 24 26 22 23 26 24 39 47 42 43 38 40 51 49 44 49 41 38 41 34 36 36 33 33 33 31 33 32 31
23 24 23 22 20 21 24 25 32 33 28 25 25 29 30 37 38 36 38 44 49 45 53 45 51 46 35 45 40 33 33 34 34 33 33 33 33 34
22 20 15 13 14 17 14 14 22 23 26 19 21 29 36 38 41 39 38 37 47 50 50 49 50 43 41 27 43 41 36 35 34 31 33 33 32 36
19 17 13 18 18 20 18 15 14 16 18 19 23 31 37 43 41 38 38 40 38 41 31 49 45 44 44 41 31 29 35 32 33 32 32 32 33 36
17 17 18 22 24 25 20 16 12 14 18 19 23 30 32 34 40 40 41 41 37 37 37 31 39 29 35 31 21 15 23 25 30 32 30 30 32 34
17 17 22 27 27 23 21 18 12 5 10 15 18 24 26 30 38 34 39 40 36 37 37 30 31 28 33 31 26 21 18 16 20 21 21 25 26 29
17 18 29 32 30 28 23 20 14 2 6 14 22 26 28 31 38 36 34 34 35 33 35 33 29 32 36 33 31 27 25 26 22 23 28 31 31 31
18 20 33 37 31 35 29 21 13 4 7 15 22 26 28 33 37 37 36 36 33 29 27 29 34 31 33 38 35 29 29 29 23 27 33 40 38 26
17 22 37 41 36 30 26 18 12 12 10 12 18 21 22 24 30 32 33 35 28 21 24 29 36 30 28 32 26 31 35 20 18 24 26 31 37 36
16 26 37 38 39 33 26 20 17 14 10 15 16 20 25 29 32 31 34 35 24 17 15 29 34 31 28 23 29 25 27 28 26 26 27 35 42 44
24 28 30 35 36 35 28 22 19 15 11 12 16 17 22 28 34 34 34 35 30 22 20 24 21 20 26 32 38 32 24 26 28 33 38 44 47 54
27 34 33 34 35 37 35 26 21 19 15 15 14 16 22 28 32 30 34 38 34 24 21 18 20 25 30 36 41 43 40 30 29 36 42 49 59 65
15 21 25 30 35 37 34 29 24 20 16 15 18 22 21 24 28 32 31 37 35 29 27 28 27 29 33 39 44 46 47 48 49 50 47 48 52 58
Wind_Direction_850mb
248 249 253 255 252 242 248 259 255 260 277 261 257 240 221 202 214 206 200 196 194 196 198 203 206 205 205 199 204 200 205 198 188 200 187 196 186 185
247 246 244 243 239 240 239 242 242 248 265 259 253 249 220 215 205 187 183 182 189 196 197 205 202 196 204 194 196 196 187 184 190 181 197 190 188 188
232 235 239 240 236 233 234 237 242 240 248 266 234 222 197 197 216 195 189 184 187 192 194 198 198 196 183 197 197 188 183 181 183 190 191 192 194 188
218 232 231 236 236 225 231 239 235 243 246 251 219 202 193 183 173 164 176 172 173 181 182 179 189 192 187 189 174 177 180 184 190 189 189 191 194 196
222 232 227 235 230 229 233 235 232 238 238 237 221 197 194 196 195 203 176 166 166 170 168 174 182 184 188 192 187 179 184 194 190 192 190 195 196 201
220 235 236 233 234 239 243 237 230 231 223 217 215 202 194 190 189 197 181 174 172 171 171 175 180 190 186 188 187 185 186 193 191 195 194 198 202 205
224 243 237 231 234 238 244 248 241 234 226 207 204 204 196 192 192 190 186 176 173 177 177 178 182 187 188 192 191 190 191 191 193 202 206 207 206 210
252 251 242 227 231 244 269 253 240 229 214 201 208 212 200 201 196 195 193 173 161 171 176 175 185 183 191 189 192 195 195 198 201 208 208 211 216 221
253 255 232 230 236 268 260 232 233 202 201 221 229 221 205 202 202 200 201 197 183 178 177 174 183 188 194 196 203 204 203 208 209 216 216 219 226 233
252 240 234 234 257 269 242 223 221 206 201 205 217 225 245 206 202 205 197 204 190 182 183 187 186 189 200 207 206 210 212 219 221 223 225 227 233 240
240 238 235 245 269 250 219 213 210 202 204 213 214 217 209 202 199 194 195 199 188 184 193 193 194 197 207 207 214 218 230 230 231 229 233 233 237 247
229 230 234 255 254 231 204 209 204 194 202 202 186 167 169 187 193 199 208 203 199 189 194 202 200 199 204 214 222 229 232 237 236 238 233 233 241 254
216 226 239 231 195 189 163 155 180 184 191 199 187 175 175 187 193 198 205 214 204 203 198 199 205 213 207 221 230 235 245 239 241 233 231 238 250 263
217 219 217 185 168 161 162 158 184 199 205 207 195 186 184 191 196 195 198 202 211 220 214 202 213 216 215 221 250 247 231 232 236 235 241 249 256 264
201 200 197 179 167 167 170 171 181 206 217 208 197 190 190 192 197 193 195 200 203 211 218 228 215 224 225 224 235 216 215 228 238 244 247 254 262 266
185 187 184 170 172 180 175 173 193 245 231 219 199 187 193 192 190 194 193 201 205 208 211 217 217 221 212 208 211 215 222 230 236 243 248 249 258 270
190 185 178 177 179 190 181 176 189 227 216 177 174 186 185 173 172 176 185 197 202 199 207 217 222 212 204 214 231 239 244 251 252 259 267 270 268 278
207 202 185 187 186 200 188 175 182 178 147 167 175 187 193 191 192 189 193 199 207 211 217 218 200 201 206 222 239 252 258 269 271 274 279 284 284 287
204 199 187 191 184 184 175 169 179 166 167 181 185 195 203 203 197 200 199 201 191 198 215 207 200 202 219 243 248 266 276 289 286 277 280 282 290 297
188 186 191 190 185 181 168 169 176 183 183 185 188 199 205 205 198 196 190 184 187 179 184 197 207 224 244 270 293 279 283 289 287 288 293 296 296 299
170 179 189 191 196 195 175 169 174 183 179 176 185 193 197 199 198 202 202 201 197 200 201 210 224 249 264 273 281 294 300 303 299 298 299 300 304 303
179 192 197 197 197 205 188 187 193 187 190 202 202 197 201 212 206 209 208 205 208 223 235 243 256 263 270 279 287 297 303 301 297 297 298 301 305 307
162 183 192 203 206 207 194 197 202 204 210 212 214 220 220 219 217 216 215 219 228 240 259 267 270 269 275 287 294 298 301 299 298 297 294 296 295 299